Terug naar catalogus

THORAD AGENA D DEB

ActiefLEO
NORAD 4249·DEBRIS·🇺🇸 United States

Gelanceerd Sep 30, 1969 vanaf Vandenberg Space Force Base

Loading…

Volgende Passages (komende 24 uur)

TLE

VersSource: Space-Track

Epoch: Sep 14, 2026, 03:23 UTC

1 04249U 69082CY  26257.14097422  .00000400  00000-0  19783-3 0  9990
2 04249  70.0619 163.8931 0054683 123.5123 237.1240 14.23409492934641

Volg THORAD AGENA D DEB in realtime met AllMySat

Download on the App Store